This is the latest recevied weather packets stored in our database for station/object WC4PEM. If no packets are shown the sender has not sent any weather packets the latest 10 day(s).
| Time | Temp. | Humidity | Pressure | Rain* | Wind** | Luminosity | Snow |
|---|---|---|---|---|---|---|---|
| 1778009967 | 31.11° C | 46% | 1013.7 hPa | 0 mm | - | - | - |
| 1778009667 | 31.11° C | 46% | 1013.8 hPa | 0 mm | - | - | - |
| 1778009367 | 31.11° C | 46% | 1013.8 hPa | 0 mm | - | - | - |
| 1778009067 | 31.11° C | 46% | 1013.9 hPa | 0 mm | - | - | - |
| 1778008767 | 31.11° C | 46% | 1014 hPa | 0 mm | - | - | - |
| 1778008467 | 31.11° C | 45% | 1014.1 hPa | 0 mm | - | - | - |
| 1778008167 | 32.22° C | 44% | 1014.1 hPa | 0 mm | - | - | - |
| 1778007867 | 31.67° C | 44% | 1014.1 hPa | 0 mm | - | - | - |
| 1778007567 | 31.67° C | 44% | 1014.2 hPa | 0 mm | - | - | - |
| 1778007267 | 31.11° C | 45% | 1014.1 hPa | 0 mm | - | - | - |
| 1778006967 | 31.11° C | 45% | 1014.3 hPa | 0 mm | - | - | - |
| 1778006667 | 30.56° C | 47% | 1014.3 hPa | 0 mm | - | - | - |
| 1778006367 | 30.56° C | 48% | 1014.3 hPa | 0 mm | - | - | - |
| 1778006067 | 30° C | 48% | 1014.4 hPa | 0 mm | - | - | - |
| 1778005767 | 30.56° C | 48% | 1014.5 hPa | 0 mm | - | - | - |
| 1778005467 | 31.11° C | 47% | 1014.6 hPa | 0 mm | - | - | - |
| 1778005167 | 31.67° C | 45% | 1014.7 hPa | 0 mm | - | - | - |
| 1778004867 | 31.67° C | 46% | 1014.8 hPa | 0 mm | - | - | - |
| 1778004567 | 31.11° C | 47% | 1014.7 hPa | 0 mm | - | - | - |
| 1778004267 | 30.56° C | 47% | 1014.8 hPa | 0 mm | - | - | - |
| 1778003967 | 30.56° C | 48% | 1015 hPa | 0 mm | - | - | - |
| 1778003667 | 30.56° C | 50% | 1014.9 hPa | 0 mm | - | - | - |
| 1778003367 | 30° C | 49% | 1015.1 hPa | 0 mm | - | - | - |
| 1778003067 | 30° C | 50% | 1015.2 hPa | 0 mm | - | - | - |
| 1778002767 | 30° C | 51% | 1015.2 hPa | 0 mm | - | - | - |
* Rain latest hour (hover to see other rain measurements)
** Current wind speed in m/s (hover to see current wind gust speed)